This demonstration page uses our WeatherBlox Daily Observations layout. Learn more.

38.88101, -77.10428

Hourly Observations for August 11, 2017

Temp ( °F °C ) Dew Point ( °F °C ) Humidity (%) Winds ( mph kmh ) Pressure ( in mb ) Visibility ( mi km ) Precip ( " mm )
12:52 am 00:52 Mostly Cloudy 73 22.8 65 18.3 76 76 S 5 7 30.17 1022 10 16.0934 0 0
1:52 am 01:52 Partly Cloudy 72 22.2 65 18.3 79 79 SSE 7 11 30.16 1021 10 16.0934 0 0
2:52 am 02:52 Partly Cloudy 71 21.7 66 18.9 84 84 SSE 6 9 30.16 1022 10 16.0934 0 0
3:52 am 03:52 Mostly Cloudy 72 22.2 66 18.9 82 82 S 10 17 30.14 1021 10 16.0934 0 0
4:52 am 04:52 Cloudy 71 21.7 65 18.3 81 81 SSW 6 9 30.14 1021 10 16.0934 0 0
5:52 am 05:52 Cloudy 72 22.2 64 17.8 76 76 Calm 30.15 1021 10 16.0934 0 0
6:03 am 06:03 Mostly Cloudy 73 22.8 63 17.2 71 71 Calm 30.15 1021 10 16.0934 0 0
6:52 am 06:52 Mostly Cloudy 72 22.2 62 16.7 71 71 SW 5 7 30.15 1021 10 16.0934 0 0
7:52 am 07:52 Mostly Cloudy 73 22.8 63 17.2 71 71 S 7 11 30.15 1021 10 16.0934 0 0
8:52 am 08:52 Mostly Cloudy 73 22.8 63 17.2 71 71 S 6 9 30.14 1021 10 16.0934 0 0
9:52 am 09:52 Mostly Cloudy 74 23.3 63 17.2 69 69 S 8 13 30.14 1021 10 16.0934 0 0
10:52 am 10:52 Cloudy 75 23.9 63 17.2 66 66 S 10 17 30.14 1021 10 16.0934 0 0
11:52 am 11:52 Cloudy 76 24.4 69 20.6 79 79 SSW 6 9 30.14 1021 10 16.0934 0 0
12:52 pm 12:52 Cloudy 78 25.6 70 21.1 76 76 S 7 11 30.12 1020 10 16.0934 0 0
12:59 pm 12:59 Mostly Cloudy 78 25.6 71 21.7 79 79 S 6 9 30.12 1020 10 16.0934 0 0
1:52 pm 13:52 Cloudy with Light Rain 80 26.7 72 22.2 76 76 SW 7 11 30.11 1020 10 16.0934 0 0.0254
2:52 pm 14:52 Mostly Cloudy 81 27.2 72 22.2 74 74 S 5 7 30.07 1018 10 16.0934 0 0.0254
3:52 pm 15:52 Mostly Cloudy 83 28.3 71 21.7 67 67 S 10 17 30.04 1017 10 16.0934 0 0
4:52 pm 16:52 Cloudy 82 27.8 72 22.2 72 72 S 9 15 30.04 1017 10 16.0934 0 0
5:52 pm 17:52 Cloudy 81 27.2 71 21.7 72 72 SSE 7 11 30.01 1016 10 16.0934 0 0
6:52 pm 18:52 Cloudy with Light Rain 80 26.7 71 21.7 74 74 SE 6 9 30 1016 10 16.0934 0 0.0254
7:01 pm 19:01 Cloudy with Light Thunderstorms 79 26.1 71 21.7 77 77 ESE 7 11 30 1016 10 16.0934 0 0.0254
7:41 pm 19:41 Cloudy with Light Thunderstorms 77 25 72 22.2 85 85 ESE 6 9 30 1016 7 11.26538 0.02 0.508
7:52 pm 19:52 Cloudy with Light Thunderstorms 76 24.4 72 22.2 88 88 ENE 3 6 30.01 1016 5 8.0467 0.05 1.27
8:12 pm 20:12 Cloudy with Light Thunderstorms 75 23.9 73 22.8 94 94 SSE 5 7 30 1016 5 8.0467 0.05 1.27
8:21 pm 20:21 Cloudy with Heavy Thunderstorms 75 23.9 73 22.8 94 94 SSE 5 7 30 1016 2.5 4.02335 0.1 2.54
8:37 pm 20:37 Cloudy with Heavy Thunderstorms 74 23.3 73 22.8 97 97 S 5 7 30.03 1017 3 4.82802 0.24 6.096
8:52 pm 20:52 Cloudy with Thunderstorms 74 23.3 73 22.8 97 97 SE 5 7 30.01 1016 5 8.0467 0.3 7.62
8:58 pm 20:58 Cloudy with Light Thunderstorms 74 23.3 73 22.8 97 97 SE 6 9 30 1016 7 11.26538 0 0.0254
9:17 pm 21:17 Cloudy with Light Rain 74 23.3 73 22.8 97 97 SSE 10 17 30 1016 10 16.0934 0.01 0.254
9:29 pm 21:29 Cloudy with Light Rain 74 23.3 73 22.8 97 97 SE 6 9 30 1016 10 16.0934 0.01 0.254
9:52 pm 21:52 Cloudy with Light Rain 74 23.3 71 21.7 91 91 Calm 30 1016 10 16.0934 0.01 0.254
10:02 pm 22:02 Cloudy with Light Rain 74 23.3 71 21.7 91 91 Calm 30.03 1017 10 16.0934 0 0.0254
10:13 pm 22:13 Cloudy with Heavy Rain 74 23.3 72 22.2 94 94 WNW 9 15 30.03 1017 2.5 4.02335 0.06 1.524
10:27 pm 22:27 Cloudy with Heavy Rain 73 22.8 72 22.2 96 96 NNW 7 11 30.03 1017 3 4.82802 0.24 6.096
10:52 pm 22:52 Cloudy with Light Rain 73 22.8 72 22.2 96 96 NE 7 11 29.99 1016 4 6.43736 0.4 10.16
11:02 pm 23:02 Cloudy with Light Rain 73 22.8 72 22.2 96 96 N 5 7 30 1016 10 16.0934 0 0.0254
11:52 pm 23:52 Cloudy 73 22.8 72 22.2 96 96 ESE 6 9 29.98 1015 10 16.0934 0 0.0254

Powered by AerisWeather